Location: Balaclava NSW 2575, Australia
(34.4510°S, 150.4953°E)
Time: 08:20:21
(UTC+10:00)

Hubble Space Telescope - Visible Passes

Search period start: 28 July 2021 00:00
Search period end: 07 August 2021 00:00
Orbit: 535 x 539 km, 28.5° (Epoch: 26 July)

Date Brightness Start Highest point End Pass type
(mag) Time Alt. Az. Time Alt. Az. Time Alt. Az.
28 Jul 3.4 05:13:24 10° NNW 05:15:51 15° NNE 05:18:18 10° ENE visible
29 Jul 3.0 05:03:09 15° N 05:04:45 18° NNE 05:07:38 10° ENE visible
30 Jul 2.7 04:53:05 20° N 04:53:41 21° NNE 04:56:52 10° ENE visible
31 Jul 2.6 04:42:55 24° NNE 04:42:55 24° NNE 04:46:01 10° ENE visible
31 Jul 2.0 06:19:34 10° WNW 06:23:24 36° N 06:27:14 10° ENE visible
01 Aug 2.8 04:32:41 24° NE 04:32:41 24° NE 04:35:07 10° ENE visible
01 Aug 2.0 06:08:33 10° WNW 06:12:23 36° N 06:16:12 10° ENE visible
02 Aug 3.1 04:22:23 21° NE 04:22:23 21° NE 04:24:12 10° ENE visible
02 Aug 2.0 05:57:42 11° WNW 06:01:21 35° N 06:05:09 10° ENE visible
03 Aug 3.4 04:12:03 17° ENE 04:12:03 17° ENE 04:13:14 10° ENE visible
03 Aug 2.0 05:47:22 15° WNW 05:50:19 33° N 05:54:05 10° ENE visible
04 Aug 3.8 04:01:42 13° ENE 04:01:42 13° ENE 04:02:14 10° ENE visible
04 Aug 2.0 05:37:00 19° WNW 05:39:16 31° N 05:42:59 10° NE visible
05 Aug 2.1 05:26:38 22° NW 05:28:14 29° N 05:31:50 10° NE visible
06 Aug 2.2 05:16:17 24° NW 05:17:10 26° NNW 05:20:40 10° NE visible
